CW5272 Weather Reports


Display with metric or nautical units.
time (UTC)temp
F
wind
direction
speed
MPH
gust
MPH
rain 1hr
in
rain 24hr
in
rain mn
in
humidity
%
barometer
mb
20190123001519 53 360 7.0 10.0 0.00 0.00 0.00 39 1027.0
20190122233519 54 20 2.0 5.0 0.00 0.00 0.00 37 1026.9
20190122231519 54 12 2.0 12.0 0.00 0.00 0.00 36 1026.8
20190122230519 54 21 12.0 12.0 0.00 0.00 0.00 34 1026.5
20190122221519 54 65 8.0 15.0 0.00 0.00 0.00 43 1026.7
20190122215519 55 46 6.0 12.0 0.00 0.00 0.00 41 1026.6
20190122214519 55 63 4.0 13.0 0.00 0.00 0.00 40 1026.6
20190122213519 54 30 2.0 13.0 0.00 0.00 0.00 38 1026.6
20190122210519 54 5 2.0 20.0 0.00 0.00 0.00 41 1026.8
20190122205519 55 5 3.0 10.0 0.00 0.00 0.00 41 1027.0
20190122203519 53 327 0.0 17.0 0.00 0.00 0.00 44 1027.3
20190122202519 53 360 3.0 14.0 0.00 0.00 0.00 45 1027.3
20190122200519 53 330 3.0 10.0 0.00 0.00 0.00 44 1027.1
20190122195519 52 26 4.0 17.0 0.00 0.00 0.00 41 1026.8
20190122194519 52 49 8.0 17.0 0.00 0.00 0.00 43 1026.8
20190122193519 52 254 0.0 15.0 0.00 0.00 0.00 40 1027.5
20190122191518 52 355 8.0 13.0 0.00 0.00 0.00 41 1027.6
20190122190519 52 314 1.0 7.0 0.00 0.00 0.00 45 1028.1
20190122184518 51 311 1.0 10.0 0.00 0.00 0.00 44 1028.0
20190122182519 50 38 3.0 12.0 0.00 0.00 0.00 51 1028.1
20190122181518 50 19 9.0 13.0 0.00 0.00 0.00 47 1028.1
20190122175518 48 290 0.0 4.0 0.00 0.00 0.00 53 1027.8
20190122173518 47 11 0.0 6.0 0.00 0.00 0.00 53 1027.4
20190122172518 46 270 5.0 12.0 0.00 0.00 0.00 52 1027.3
20190122171518 46 241 2.0 10.0 0.00 0.00 0.00 52 1027.3
20190122165518 46 15 1.0 18.0 0.00 0.00 0.00 52 1027.0
20190122160518 44 346 5.0 20.0 0.00 0.00 0.00 58 1026.6
20190122155518 44 44 6.0 14.0 0.00 0.00 0.00 61 1026.2
20190122150518 43 347 4.0 15.0 0.00 0.00 0.00 69 1026.2
20190122145518 43 355 10.0 14.0 0.00 0.01 0.00 71 1025.9
20190122143518 43 309 3.0 10.0 0.00 0.01 0.00 71 1025.8
20190122142518 43 9 14.0 21.0 0.00 0.01 0.00 73 1026.2
20190122141518 42 299 3.0 13.0 0.00 0.01 0.00 76 1026.2
20190122140518 42 272 8.0 8.0 0.00 0.01 0.00 77 1025.7
20190122135518 42 26 8.0 10.0 0.00 0.01 0.00 77 1025.7
20190122134518 42 29 3.0 16.0 0.00 0.01 0.00 77 1025.7
20190122133518 42 348 9.0 14.0 0.00 0.01 0.00 77 1025.7
20190122121518 44 302 6.0 9.0 0.00 0.01 0.00 75 1026.0
20190122120518 44 286 3.0 6.0 0.00 0.01 0.00 75 1025.9
20190122113518 44 22 6.0 11.0 0.00 0.01 0.00 72 1025.9
20190122102518 44 294 4.0 9.0 0.00 0.02 0.00 78 1025.4
20190122101517 44 255 3.0 10.0 0.00 0.02 0.00 78 1025.4
20190122100517 45 281 3.0 5.0 0.00 0.02 0.00 79 1025.2
20190122095517 45 283 8.0 14.0 0.00 0.02 0.00 78 1025.2
20190122093518 45 248 8.0 11.0 0.00 0.02 0.00 78 1025.1
20190122092517 45 288 3.0 11.0 0.00 0.02 0.00 78 1025.0
20190122091518 45 325 4.0 10.0 0.00 0.02 0.00 79 1025.0
20190122090517 45 275 3.0 10.0 0.00 0.02 0.00 79 1025.2
20190122085517 45 284 2.0 13.0 0.00 0.02 0.00 80 1025.0
20190122084517 45 291 5.0 11.0 0.00 0.03 0.00 79 1025.0
20190122083517 45 263 3.0 9.0 0.00 0.03 0.00 79 1025.1
20190122082517 45 264 5.0 11.0 0.00 0.03 0.00 80 1024.7
20190122081517 46 302 5.0 13.0 0.00 0.03 0.00 80 1024.7
20190122075517 46 264 2.0 17.0 0.00 0.03 0.03 79 1024.9
20190122073517 45 253 3.0 11.0 0.00 0.03 0.03 82 1024.7
20190122072517 45 286 4.0 10.0 0.00 0.03 0.03 85 1024.8
20190122071517 45 279 4.0 10.0 0.00 0.03 0.03 87 1024.8
20190122065517 45 254 2.0 10.0 0.00 0.03 0.03 89 1025.0
20190122064517 44 269 9.0 10.0 0.00 0.03 0.03 90 1025.0
20190122063517 44 261 2.0 9.0 0.00 0.03 0.03 90 1024.9
20190122062517 44 291 2.0 8.0 0.00 0.03 0.03 91 1024.9
20190122060517 44 253 0.0 6.0 0.00 0.04 0.03 92 1024.9
20190122055517 44 263 1.0 5.0 0.00 0.04 0.03 92 1024.9
20190122054517 44 279 3.0 7.0 0.00 0.04 0.03 93 1024.9
20190122053517 44 287 0.0 7.0 0.00 0.04 0.03 93 1024.9
20190122050517 44 279 2.0 4.0 0.00 0.04 0.03 94 1024.6
20190122044517 44 326 0.0 10.0 0.00 0.04 0.03 95 1024.5
20190122043517 44 304 3.0 5.0 0.00 0.04 0.03 95 1024.5
20190122042517 44 315 0.0 5.0 0.00 0.04 0.03 95 1024.5
20190122041517 44 273 0.0 10.0 0.00 0.04 0.03 95 1024.5
20190122040517 44 262 3.0 10.0 0.00 0.04 0.03 95 1024.5
20190122034517 45 309 7.0 14.0 0.00 0.04 0.03 95 1024.2
20190122033517 45 307 3.0 10.0 0.00 0.04 0.03 95 1024.4
20190122032517 45 282 11.0 12.0 0.00 0.05 0.03 95 1024.1
20190122031517 45 289 2.0 17.0 0.00 0.06 0.03 95 1024.1
20190122025516 46 299 4.0 14.0 0.00 0.07 0.03 94 1023.7
20190122024517 46 277 5.0 15.0 0.00 0.08 0.03 94 1023.7
20190122023516 46 334 14.0 14.0 0.00 0.08 0.03 93 1023.6
20190122021517 46 284 2.0 14.0 0.00 0.09 0.03 92 1023.7
20190122020517 46 268 5.0 9.0 0.00 0.09 0.03 91 1023.6
20190122015516 47 266 3.0 10.0 0.00 0.10 0.03 90 1023.4
20190122014516 47 263 8.0 12.0 0.00 0.10 0.03 88 1023.4
20190122013517 48 269 0.0 12.0 0.00 0.10 0.03 87 1023.3
20190122012516 48 277 0.0 10.0 0.00 0.11 0.03 86 1022.9
20190122011517 49 285 4.0 10.0 0.00 0.11 0.03 85 1022.9
20190122010517 49 254 3.0 10.0 0.00 0.11 0.03 84 1022.8
20190122005517 49 299 3.0 9.0 0.00 0.11 0.03 83 1022.6
20190122004516 50 234 1.0 9.0 0.00 0.11 0.03 82 1022.6